"Pseudo-MPEC" for A118snj

Created 2024 Jul 24 17:22:03 UT using Find_Orb

Click here for an explanation of pseudo-MPECs

 
 Astrometry: 
     A118snj* C2024 07 14.60001723 16 26.791+12 19 22.76   ~7EIq 16.78oVNEOCPT08
     A118snj  C2024 07 14.60048023 16 29.009+12 18 19.04   ~7EIq 16.81oVNEOCPT08
     A118snj  C2024 07 14.60094323 16 31.150+12 17 16.58   ~7EIq 16.78oVNEOCPT08
     A118snj  C2024 07 14.60140623 16 33.343+12 16 13.26   ~7EIq 16.79oVNEOCPT08
     A118snj* C2024 07 14.60185423 16 38.369+12 13 58.91   ~7EKq 16.93oVNEOCPT05
     A118snj  C2024 07 14.60186723 16 35.477+12 15 11.70   ~7EIq 16.77oVNEOCPT08
     A118snj  C2024 07 14.60230623 16 40.522+12 12 57.20   ~7EKq 17.02oVNEOCPT05
     A118snj  C2024 07 14.60275923 16 42.499+12 11 59.46   ~7EKq 17.07oVNEOCPT05
     A118snj  C2024 07 14.60321123 16 44.628+12 10 57.94   ~7EKq 16.77oVNEOCPT05
     A118snj  C2024 07 14.60366323 16 46.694+12 09 57.56   ~7EKq 16.95oVNEOCPT05

Station data:
(T05) ATLAS-HKO, Haleakala  (N20.707551 W156.257010)  US/Hawaii.  Observers
   L. Denneau, A. Heinze, H. Weiland, J. Tonry, H. Flewelling, A.
   Fitzsimmons, D. Young, B. Stalder. Measurers L. Denneau, A. Heinze, J.
   Tonry. 0.5-m f/2.0 Schmidt + CCD.
(T08) ATLAS-MLO, Mauna Loa  (N19.536150 W155.576050)  US/Hawaii.  Observers
   L. Denneau, A. Heinze, H. Weiland, J. Tonry, H. Flewelling, A.
   Fitzsimmons, D. Young, B. Stalder. Measurers L. Denneau, A. Heinze, J.
   Tonry. 0.5-m f/2.0 Schmidt + CCD.

Orbital elements:  A118snj
   Perigee 2024 Jul 14.65504 TT = 15:43:15 (JD 2460506.15504)    AutoNEOCP
Epoch 2024 Jul 15.0 TT = JDT 2460506.5
q358447.547km                       (J2000 equator)
H   28.04 G 0.15   Peri.  167.50067
                   Node   177.42248
e   8.1768820      Incl.   57.00347
From 10 observations 2024 July 14 (5.3 min); mean residual 0".90
Residuals in arcseconds: 
240714 T08  1.1-  1.7+    240714 T05  .37+  .79-    240714 T05  .24-  .54+    
240714 T08  .00   .18+    240714 T08  .59+  .82-    240714 T05  .71-  .90+    
240714 T08  .07-  .08-    240714 T05  1.2+  1.8-    
240714 T08  .62+  1.2-    240714 T05  .68-  1.3+    

Ephemerides (geocentric):
Date (UTC) HH   RA             Dec           delta  r     elong  mag
---- --------  ------------   ------------  ------ ------ -----  ---
2024 07 24 17  04 08 32.330   -54 11 34.82  .01705 1.0162  90.9 22.3
2024 07 24 18  04 08 46.430   -54 12 19.94  .01712 1.0162  90.9 22.3
2024 07 24 19  04 09 00.431   -54 13 04.62  .01718 1.0161  90.9 22.4
2024 07 24 20  04 09 14.335   -54 13 48.86  .01725 1.0161  90.9 22.4
2024 07 24 21  04 09 28.142   -54 14 32.67  .01732 1.0161  90.9 22.4
2024 07 24 22  04 09 41.853   -54 15 16.05  .01739 1.0161  90.9 22.4
2024 07 24 23  04 09 55.471   -54 15 59.01  .01745 1.0161  90.8 22.4
2024 07 25 00  04 10 08.994   -54 16 41.56  .01752 1.0161  90.8 22.4
2024 07 25 01  04 10 22.425   -54 17 23.70  .01759 1.0161  90.8 22.4
2024 07 25 02  04 10 35.765   -54 18 05.44  .01766 1.0161  90.8 22.4
2024 07 25 03  04 10 49.014   -54 18 46.79  .01772 1.0161  90.8 22.4
2024 07 25 04  04 11 02.173   -54 19 27.74  .01779 1.0161  90.8 22.4
2024 07 25 05  04 11 15.243   -54 20 08.31  .01786 1.0161  90.8 22.4
2024 07 25 06  04 11 28.226   -54 20 48.51  .01792 1.0161  90.8 22.4
2024 07 25 07  04 11 41.121   -54 21 28.33  .01799 1.0161  90.8 22.5
2024 07 25 08  04 11 53.931   -54 22 07.78  .01806 1.0161  90.8 22.5
2024 07 25 09  04 12 06.655   -54 22 46.87  .01813 1.0161  90.8 22.5
2024 07 25 10  04 12 19.296   -54 23 25.60  .01819 1.0161  90.8 22.5
2024 07 25 11  04 12 31.852   -54 24 03.98  .01826 1.0161  90.8 22.5
2024 07 25 12  04 12 44.326   -54 24 42.02  .01833 1.0161  90.7 22.5
2024 07 25 13  04 12 56.719   -54 25 19.71  .01840 1.0161  90.7 22.5
2024 07 25 14  04 13 09.030   -54 25 57.06  .01846 1.0161  90.7 22.5
2024 07 25 15  04 13 21.261   -54 26 34.09  .01853 1.0161  90.7 22.5
2024 07 25 16  04 13 33.413   -54 27 10.78  .01860 1.0161  90.7 22.5
2024 07 25 17  04 13 45.487   -54 27 47.15  .01866 1.0161  90.7 22.5
2024 07 25 18  04 13 57.482   -54 28 23.20  .01873 1.0161  90.7 22.5
2024 07 25 19  04 14 09.400   -54 28 58.94  .01880 1.0161  90.7 22.6
2024 07 25 20  04 14 21.243   -54 29 34.37  .01887 1.0160  90.7 22.6
2024 07 25 21  04 14 33.009   -54 30 09.50  .01893 1.0160  90.7 22.6
2024 07 25 22  04 14 44.701   -54 30 44.32  .01900 1.0160  90.7 22.6
2024 07 25 23  04 14 56.319   -54 31 18.84  .01907 1.0160  90.7 22.6
2024 07 26 00  04 15 07.863   -54 31 53.07  .01913 1.0160  90.7 22.6
2024 07 26 01  04 15 19.335   -54 32 27.02  .01920 1.0160  90.7 22.6
2024 07 26 02  04 15 30.735   -54 33 00.68  .01927 1.0160  90.7 22.6
2024 07 26 03  04 15 42.063   -54 33 34.05  .01934 1.0160  90.6 22.6
2024 07 26 04  04 15 53.321   -54 34 07.15  .01940 1.0160  90.6 22.6
2024 07 26 05  04 16 04.509   -54 34 39.98  .01947 1.0160  90.6 22.6
2024 07 26 06  04 16 15.628   -54 35 12.54  .01954 1.0160  90.6 22.6
2024 07 26 07  04 16 26.678   -54 35 44.83  .01960 1.0160  90.6 22.6
2024 07 26 08  04 16 37.660   -54 36 16.86  .01967 1.0160  90.6 22.7
2024 07 26 09  04 16 48.575   -54 36 48.62  .01974 1.0160  90.6 22.7
2024 07 26 10  04 16 59.423   -54 37 20.14  .01980 1.0160  90.6 22.7
2024 07 26 11  04 17 10.205   -54 37 51.40  .01987 1.0160  90.6 22.7
2024 07 26 12  04 17 20.921   -54 38 22.41  .01994 1.0160  90.6 22.7
2024 07 26 13  04 17 31.573   -54 38 53.18  .02001 1.0160  90.6 22.7
2024 07 26 14  04 17 42.160   -54 39 23.71  .02007 1.0160  90.6 22.7
2024 07 26 15  04 17 52.683   -54 39 53.99  .02014 1.0160  90.6 22.7
2024 07 26 16  04 18 03.144   -54 40 24.04  .02021 1.0160  90.6 22.7